DW2659 Weather Reports


time (UTC)temp
C
wind
direction
speed
KPH
gust
KPH
rain 1hr
cm
rain 24hr
cm
rain mn
cm
humidity
%
barometer
mb
20260504050403 13 180 0.0 0.0 0.00 0.00 0.00 55 1017.4
20260504045908 13 180 1.6 1.6 0.00 0.00 0.00 53 1017.5
20260504045403 13 252 1.6 3.2 0.00 0.00 0.00 52 1017.5
20260504044903 13 251 3.2 4.8 0.00 0.00 0.00 50 1017.5
20260504044403 13 264 0.0 4.8 0.00 0.00 0.00 51 1017.5
20260504043904 14 246 1.6 4.8 0.00 0.00 0.00 50 1017.5
20260504042903 14 250 3.2 4.8 0.00 0.00 0.00 48 1017.5
20260504042403 14 251 3.2 4.8 0.00 0.00 0.00 47 1017.5
20260504041402 14 260 3.2 4.8 0.00 0.00 0.00 47 1017.4
20260504040903 14 265 1.6 4.8 0.00 0.00 0.00 49 1017.4
20260504040403 14 250 3.2 4.8 0.00 0.00 0.00 50 1017.4
20260504034903 14 236 4.8 9.7 0.00 0.00 0.00 49 1017.4
20260504034403 14 232 3.2 4.8 0.00 0.00 0.00 49 1017.4
20260504033904 14 238 3.2 9.7 0.00 0.00 0.00 50 1017.2
20260504033402 14 252 1.6 4.8 0.00 0.00 0.00 51 1017.2
20260504032903 14 256 3.2 4.8 0.00 0.00 0.00 51 1017.0
20260504032404 14 253 3.2 4.8 0.00 0.00 0.00 50 1017.0
20260504031903 14 291 0.0 3.2 0.00 0.00 0.00 50 1017.0
20260504031403 14 231 3.2 4.8 0.00 0.00 0.00 50 1017.0
20260504030903 15 260 1.6 4.8 0.00 0.00 0.00 50 1016.9
20260504030403 15 256 3.2 11.3 0.00 0.00 0.00 49 1016.9
20260504025903 15 201 3.2 8.0 0.00 0.00 0.00 50 1017.0
20260504025403 15 248 3.2 4.8 0.00 0.00 0.00 49 1017.0
20260504024903 15 250 3.2 4.8 0.00 0.00 0.00 50 1017.0
20260504024403 15 229 1.6 3.2 0.00 0.00 0.00 51 1017.0
20260504023904 15 225 1.6 4.8 0.00 0.00 0.00 50 1017.0
20260504022903 15 243 1.6 4.8 0.00 0.00 0.00 50 1017.1
20260504022404 14 236 3.2 4.8 0.00 0.00 0.00 51 1017.1
20260504021903 13 252 3.2 4.8 0.00 0.00 0.00 54 1017.1
20260504020904 11 252 1.6 4.8 0.00 0.00 0.00 68 1016.9
20260504020402 11 267 0.0 1.6 0.00 0.00 0.00 68 1016.9
20260504015903 11 267 0.0 0.0 0.00 0.00 0.00 67 1016.7
20260504015403 11 267 0.0 0.0 0.00 0.00 0.00 66 1016.7
20260504014903 11 267 0.0 0.0 0.00 0.00 0.00 65 1016.7
20260504014402 11 267 0.0 0.0 0.00 0.00 0.00 64 1016.6
20260504013904 11 267 0.0 0.0 0.00 0.00 0.00 64 1016.6
20260504013403 11 267 0.0 0.0 0.00 0.00 0.00 64 1016.6
20260504012902 11 267 0.0 0.0 0.00 0.00 0.00 63 1016.6
20260504012404 12 267 0.0 0.0 0.00 0.00 0.00 63 1016.6
20260504011903 12 267 0.0 0.0 0.00 0.00 0.00 62 1016.6
20260504011403 12 267 0.0 0.0 0.00 0.00 0.00 61 1016.6
20260504010903 12 267 0.0 0.0 0.00 0.00 0.00 60 1016.6
20260504010403 12 267 0.0 0.0 0.00 0.00 0.00 60 1016.6
20260504005903 12 267 0.0 0.0 0.00 0.00 0.00 59 1016.3
20260504005404 13 267 0.0 0.0 0.00 0.00 0.00 58 1016.3
20260504004903 13 267 0.0 0.0 0.00 0.00 0.00 57 1016.3
20260504004402 13 267 0.0 0.0 0.00 0.00 0.00 57 1016.3
20260504003904 13 267 0.0 0.0 0.00 0.00 0.00 56 1016.3
20260504003403 14 267 0.0 0.0 0.00 0.00 0.00 55 1016.3
20260504002903 14 267 0.0 0.0 0.00 0.00 0.00 55 1016.2
20260504002404 14 267 0.0 0.0 0.00 0.00 0.00 55 1016.2
20260504001903 15 267 0.0 0.0 0.00 0.00 0.00 54 1016.2
20260504001403 15 267 0.0 0.0 0.00 0.00 0.00 53 1016.2
20260504000904 15 267 0.0 0.0 0.00 0.00 0.00 53 1016.2
20260504000403 15 267 0.0 0.0 0.00 0.00 0.00 53 1016.2
20260503235903 15 267 0.0 1.6 0.00 0.00 0.00 52 1016.2
20260503235404 15 267 0.0 1.6 0.00 0.00 0.00 51 1016.3
20260503234903 15 267 1.6 3.2 0.00 0.00 0.00 48 1016.3
20260503234403 15 267 0.0 3.2 0.00 0.00 0.00 51 1016.2
20260503233904 16 269 0.0 3.2 0.00 0.00 0.00 47 1016.2
20260503233402 16 241 1.6 4.8 0.00 0.00 0.00 46 1016.2
20260503232903 16 249 1.6 3.2 0.00 0.00 0.00 51 1016.2
20260503232404 16 302 0.0 3.2 0.00 0.00 0.00 50 1016.3
20260503231903 17 302 0.0 1.6 0.00 0.00 0.00 50 1016.3
20260503231403 17 313 1.6 3.2 0.00 0.00 0.00 49 1016.4
20260503230905 17 334 3.2 4.8 0.00 0.00 0.00 41 1016.3
20260503225903 18 42 0.0 0.0 0.00 0.00 0.00 41 1016.4
20260503225404 18 42 1.6 3.2 0.00 0.00 0.00 43 1016.3
20260503224903 18 55 1.6 4.8 0.00 0.00 0.00 43 1016.4
20260503224403 19 89 1.6 3.2 0.00 0.00 0.00 36 1016.4
20260503223904 19 32 0.0 4.8 0.00 0.00 0.00 39 1016.4
20260503223403 19 202 0.0 4.8 0.00 0.00 0.00 34 1016.4
20260503222903 19 236 3.2 4.8 0.00 0.00 0.00 33 1016.4
20260503222404 20 182 3.2 12.9 0.00 0.00 0.00 33 1016.4
20260503221403 20 217 3.2 8.0 0.00 0.00 0.00 34 1016.5
20260503220904 20 265 3.2 11.3 0.00 0.00 0.00 34 1016.5
20260503220403 20 209 1.6 9.7 0.00 0.00 0.00 34 1016.5
20260503215903 20 74 1.6 4.8 0.00 0.00 0.00 33 1016.6
20260503215404 20 101 1.6 3.2 0.00 0.00 0.00 34 1016.8
20260503214403 20 189 4.8 8.0 0.00 0.00 0.00 32 1016.9
20260503213403 20 199 4.8 11.3 0.00 0.00 0.00 34 1017.0
20260503212903 20 215 1.6 8.0 0.00 0.00 0.00 34 1017.2
20260503211403 20 174 1.6 4.8 0.00 0.00 0.00 35 1017.3
20260503210905 21 54 1.6 4.8 0.00 0.00 0.00 33 1017.3
20260503210403 20 237 3.2 8.0 0.00 0.00 0.00 34 1017.3
20260503205904 20 177 4.8 8.0 0.00 0.00 0.00 34 1017.5
20260503205405 20 274 3.2 8.0 0.00 0.00 0.00 34 1017.5
20260503204903 20 97 3.2 9.7 0.00 0.00 0.00 34 1017.5
20260503204403 20 300 1.6 4.8 0.00 0.00 0.00 35 1017.5
20260503203904 20 75 3.2 9.7 0.00 0.00 0.00 35 1017.5
20260503203403 20 183 1.6 3.2 0.00 0.00 0.00 35 1017.6
20260503202903 20 5 3.2 8.0 0.00 0.00 0.00 37 1018.0
20260503202404 20 227 4.8 11.3 0.00 0.00 0.00 34 1018.0
20260503201903 20 232 4.8 8.0 0.00 0.00 0.00 34 1018.0
20260503201403 20 278 4.8 14.5 0.00 0.00 0.00 33 1018.3
20260503200904 20 227 4.8 12.9 0.00 0.00 0.00 34 1018.3
20260503195903 20 215 3.2 11.3 0.00 0.00 0.00 34 1018.6
20260503195404 19 200 4.8 16.1 0.00 0.00 0.00 34 1018.6
20260503194903 19 172 6.4 11.3 0.00 0.00 0.00 34 1018.6
20260503194403 19 117 6.4 11.3 0.00 0.00 0.00 35 1018.8
20260503193904 19 235 4.8 11.3 0.00 0.00 0.00 32 1018.8
20260503193403 19 225 6.4 12.9 0.00 0.00 0.00 33 1018.8
20260503191903 19 224 3.2 9.7 0.00 0.00 0.00 35 1019.2
20260503191403 19 73 3.2 8.0 0.00 0.00 0.00 36 1019.2
20260503190904 19 45 3.2 8.0 0.00 0.00 0.00 38 1019.2
20260503190403 19 1 3.2 4.8 0.00 0.00 0.00 38 1019.2
20260503184903 18 226 4.8 8.0 0.00 0.00 0.00 36 1019.3
20260503184403 18 252 3.2 12.9 0.00 0.00 0.00 38 1019.4
20260503183904 18 183 3.2 4.8 0.00 0.00 0.00 37 1019.4
20260503183403 18 250 3.2 9.7 0.00 0.00 0.00 37 1019.4
20260503182903 18 149 3.2 8.0 0.00 0.00 0.00 36 1019.5
20260503182405 18 267 1.6 4.8 0.00 0.00 0.00 36 1019.5
20260503181403 18 50 3.2 8.0 0.00 0.00 0.00 44 1019.7
20260503180905 17 138 8.0 14.5 0.00 0.00 0.00 37 1019.7
20260503180404 18 185 8.0 11.3 0.00 0.00 0.00 37 1019.7
20260503175404 18 131 4.8 9.7 0.00 0.00 0.00 38 1020.1
20260503174903 18 246 3.2 11.3 0.00 0.00 0.00 39 1020.1
20260503174403 17 229 3.2 11.3 0.00 0.00 0.00 37 1020.1
20260503173904 18 50 4.8 9.7 0.00 0.00 0.00 40 1020.1
20260503173404 18 17 3.2 4.8 0.00 0.00 0.00 41 1020.1
20260503172404 17 225 1.6 4.8 0.00 0.00 0.00 42 1020.4
20260503171903 17 101 3.2 8.0 0.00 0.00 0.00 40 1020.4
20260503171404 17 225 4.8 11.3 0.00 0.00 0.00 40 1020.4
20260503170905 17 247 3.2 4.8 0.00 0.00 0.00 40 1020.4
20260503170403 17 54 3.2 8.0 0.00 0.00 0.00 44 1020.4
20260503150905 15 66 4.8 4.8 0.00 0.00 0.00 49 1021.2
20260503150403 15 35 4.8 9.7 0.00 0.00 0.00 48 1021.2
20260503131403 11 49 1.6 4.8 0.00 0.00 0.00 68 1020.8
20260503130905 11 58 1.6 4.8 0.00 0.00 0.00 70 1020.8
20260503130404 10 47 0.0 4.8 0.00 0.00 0.00 72 1020.8
20260503110404 5 181 0.0 0.0 0.00 0.00 0.00 83 1019.9
20260503081405 6 102 0.0 1.6 0.00 0.00 0.00 80 1018.3
20260503080404 6 102 0.0 0.0 0.00 0.00 0.00 79 1018.3
20260503072905 7 102 0.0 0.0 0.00 0.00 0.00 77 1018.2
20260503071905 7 102 0.0 0.0 0.00 0.00 0.00 77 1018.0
20260503071405 7 102 0.0 0.0 0.00 0.00 0.00 77 1018.0
20260503070904 7 102 0.0 0.0 0.00 0.00 0.00 76 1018.0
20260503070404 7 102 0.0 0.0 0.00 0.00 0.00 75 1018.0
20260503054904 8 154 0.0 1.6 0.00 0.00 0.00 71 1017.7
20260503054405 8 154 0.0 0.0 0.00 0.00 0.00 71 1017.8
20260503053904 8 154 0.0 1.6 0.00 0.00 0.00 70 1017.8
20260503053404 8 154 0.0 1.6 0.00 0.00 0.00 70 1017.8
20260503052905 8 154 0.0 1.6 0.00 0.00 0.00 70 1017.8
20260503052404 8 154 0.0 1.6 0.00 0.00 0.00 69 1017.7